Skip Page Navigation
NASA JPL Caltech
NASA Logo - Jet Propulsion Laboratory + View the NASA Portal
+ Center for Near-Earth Object Studies
JPL Home Earth Solar System Stars & Galaxies Technology
JPL Solar System Dynamics
BODIES ORBITS EPHEMERIDES TOOLS PHYSICAL DATA DISCOVERY FAQ SITE MAP
JPL Small-Body Database Browser
Search: [ help ]  
5382 McKay (1991 JR2)
Classification: Main-belt Asteroid          SPK-ID: 2005382
Ephemeris | Orbit Diagram | Orbital Elements | Mission Design | Physical Parameters | Discovery Circumstances | Close-Approach Data ]

[ show orbit diagram ]
Orbital Elements at Epoch 2459200.5 (2020-Dec-17.0) TDB
Reference: JPL 38 (heliocentric ecliptic J2000)
 Element Value Uncertainty (1-sigma)   Units 
e .09290816823579191 3.3549e-08  
a 2.627887481156185 1.0209e-08 au
q 2.383735268952194 9.137e-08 au
i 12.79171840070787 5.4583e-07 deg
node 169.0640129206629 3.2505e-06 deg
peri 10.97718955596081 7.5563e-06 deg
M 24.76510602198548 4.6749e-06 deg
tp 2459093.459959021031
(2020-Aug-31.95995902)
2.0165e-05 TDB
period 1555.996357060591
4.26
9.067e-06
2.482e-08
d
yr
n .231363009538191 1.3482e-09 deg/d
Q 2.872039693360176 1.1157e-08 au
  Orbit Determination Parameters
   # obs. used (total)      2497  
   data-arc span      18051 days (49.42 yr)  
   first obs. used      1971-10-13  
   last obs. used      2021-03-15  
   planetary ephem.      DE441  
   SB-pert. ephem.      SB441-N16  
   condition code      0  
   norm. resid. RMS      .43137  
   source      ORB  
   producer      Otto Matic  
   solution date      2021-Apr-12 17:28:44  

Additional Information
 Earth MOID = 1.38859 au 
 Jupiter MOID = 2.08849 au 
 T_jup = 3.360 
[ hide covariance matrix ]
Orbital Elements at Epoch 2457012.5 (2014-Dec-21.0) TDB
Reference: JPL 38 (heliocentric ecliptic J2000)
 Element Value Uncertainty (1-sigma)   Units 
e .09388354500327258 3.3603e-08  
q 2.380890777823868 9.1566e-08 au
tp 2457539.364448328412
(2016-May-30.86444833)
2.1043e-05 TDB
node 169.0911420524194 3.2509e-06 deg
peri 11.56929611044735 7.2873e-06 deg
i 12.7917693727957 5.4625e-07 deg
  Orbit Determination Parameters
   # obs. used (total)      2497  
   data-arc span      18051 days (49.42 yr)  
   first obs. used      1971-10-13  
   last obs. used      2021-03-15  
   planetary ephem.      DE441  
   SB-pert. ephem.      SB441-N16  
   condition code      0  
   norm. resid. RMS      .43137  
   source      ORB  
   producer      Otto Matic  
   solution date      2021-Apr-12 17:28:44  

Additional Information
 Jupiter MOID = 2.08849 au 
 T_jup = 3.360 
Orbit Covariance (6×6)
  e q tp node peri i
e 1.129195021533342E-15 -3.062717856684279E-15 1.546776677836496E-13 -2.621454477121677E-14 1.495558504706978E-13 -1.598496594675748E-15
q -3.062717856684279E-15 8.384369330286642E-15 -4.754661865474332E-13 7.104791270973356E-14 -4.227544136962809E-13 4.319904081783963E-15
tp 1.546776677836496E-13 -4.754661865474332E-13 4.428082248006218E-10 2.133303736508855E-12 1.194608963689358E-10 -2.064379702617574E-12
node -2.621454477121677E-14 7.104791270973356E-14 2.133303736508855E-12 1.056839783987845E-11 -1.180728979444041E-11 -1.183163082449409E-12
peri 1.495558504706978E-13 -4.227544136962809E-13 1.194608963689358E-10 -1.180728979444041E-11 5.310430052463204E-11 5.95671869453883E-13
i -1.598496594675748E-15 4.319904081783963E-15 -2.064379702617574E-12 -1.183163082449409E-12 5.95671869453883E-13 2.983939104264657E-13

Ephemeris | Orbit Diagram | Orbital Elements | Mission Design | Physical Parameters | Discovery Circumstances | Close-Approach Data ]

Physical Parameter Table
Parameter Symbol Value Units Sigma Reference Notes
absolute magnitude H 12.59   n/a E2021B10  
diameter diameter 10.281 km 0.819 urn:nasa:pds:neowise_diameters_albedos::2.0[mainbelt] (http://adsabs.harvard.edu/abs/2012ApJ...759L...8M)  
rotation period rot_per 21.486 h n/a LCDB (Rev. 2020-October); Warner et al., 2009 Result based on less than full coverage, so that the period may be wrong by 30 percent or so.
Published Reference List:
[Waszczak, A.; Chang, C.-K.; Ofeck, E.O.; Laher, F.; et al. (2015) Astron. J. 150, A75.]
geometric albedo albedo 0.183   0.053 urn:nasa:pds:neowise_diameters_albedos::2.0[mainbelt] (http://adsabs.harvard.edu/abs/2012ApJ...759L...8M)  

5382 McKay           Discovered 1991 May 8 by R. H. McNaught at Siding Spring.
Named for Christopher P. McKay (b. 1954), space scientist and exobiologist at NASA-Ames Research Center. McKay has made numerous seminal contributions to planetary science and the search for zones of life in the solar system, with a special interest in Mars, Titan, comets and microbial life in hostile environments on the earth. Name suggested and citation prepared by D. I. Steel.
NOTE: some special characters may not display properly (any characters within {} are an attempt to place the proper accent above a character)
Reference: 19980411/MPCPages.arcLast Updated: 2009-11-17

[ hide close-approach data ]
Close-Approach Data   ...sorted by Date/Time (TDB)
Date/Time (TDB) Time Uncertainty
(days_HH:MM)
Body Nominal Distance (au) Minimum Distance (au) Maximum Distance (au) V-relative (km/s) V-infinity (km/s) JD (TDB) Time Uncertainty (minutes) Semi-major axis (km) Semi-minor axis (km) range-LOV angle (deg) N-sigma BP Orbit Ref. Reference Modified
2013-Jul-14 08:58 < 00:01 Juno 0.0144966258138755 0.0144953961922842 0.0144978554425983 5.93234855522146 5.93234841375535 2456487.873482873 0.217355144182081 73.8756404921261 56.472221849472 59.9939970989978 36333.5041123645 T 38 CATAB v2.0f-lin.ifort 2021-Apr-12 17:29:53 2021-Apr-12 17:29

Alternate Designations
 1991 JR2 = 1952 DK1 = 1971 TK2 
Ephemeris | Orbit Diagram | Orbital Elements | Mission Design | Physical Parameters | Discovery Circumstances | Close-Approach Data ]
ABOUT SSD CREDITS/AWARDS PRIVACY/COPYRIGHT GLOSSARY LINKS
FirstGov 2021-Apr-14 21:03 UT
(server date/time)  
NASA Home Page
Site Manager:   Ryan S. Park
Webmaster  Alan B. Chamberlin